Date String (YYYY-MM-DD hh:mm:ss) UTC,Instrument flags,Ambient pressure (hPa),Sample flow (lpm),Bypass flow (lpm),Sample temperature (°C),Ambient temperature (°C),ASC tube jacket temperature (°C),LED temperature (°C),Box temperature (°C),Sample RH (%),Span deviation,Mass concentration (μg/m³),Mass concentration (μg/m³),Mass concentration (μg/m³)
DateTimeUTC,F1_M11,P_M11,Q1_M11,Q2_M11,T1_M11,T2_M11,T3_M11,T4_M11,T5_M11,U1_M11,ZSPAN_M11,X0_M11,X2_M11,X1_M11
2023-03-03 01:00:00,,0814.9,5.00,0.00,23.2,21.8,00.0,32.0,25.0,08.8,-000.7,0008.36,0004.34,0003.88
2023-03-03 01:01:00,,0814.9,5.01,0.00,23.2,21.8,00.0,32.0,25.0,09.7,-000.2,0007.83,0004.12,0003.70
2023-03-03 01:02:00,,0814.9,5.00,0.00,23.2,21.8,00.0,32.0,25.0,10.0,-000.1,0007.62,0003.96,0003.54
2023-03-03 01:03:00,,0814.9,4.99,0.00,23.2,21.8,00.0,32.0,25.0,09.9,0000.0,0007.25,0003.75,0003.37
2023-03-03 01:04:00,,0814.9,5.00,0.00,23.2,21.8,00.0,32.0,25.0,11.8,-000.2,0007.34,0003.68,0003.31
2023-03-03 01:05:00,,0814.9,4.99,0.00,23.2,21.7,00.0,32.0,24.9,12.5,0000.1,0008.23,0003.68,0003.32
2023-03-03 01:06:00,,0814.9,5.01,0.00,23.2,21.7,00.0,32.0,24.9,12.6,-000.2,0008.27,0003.79,0003.42
2023-03-03 01:07:00,,0814.9,5.01,0.00,23.2,21.7,00.0,32.0,24.9,12.6,-000.6,0009.09,0004.04,0003.63
2023-03-03 01:08:00,,0815.1,5.00,0.00,23.2,21.7,00.0,32.0,24.9,11.8,-000.6,0009.41,0004.27,0003.82
2023-03-03 01:09:00,,0815.0,5.00,0.00,23.2,21.6,00.0,32.0,24.9,11.7,-000.9,0009.84,0004.51,0004.00
2023-03-03 01:10:00,,0814.9,5.00,0.00,23.2,21.7,00.0,32.0,24.9,12.6,0000.4,0010.08,0004.77,0004.25
2023-03-03 01:11:00,,0814.9,5.01,0.00,23.2,21.7,00.0,32.0,24.9,12.8,0001.5,0010.50,0005.06,0004.50
2023-03-03 01:12:00,,0815.0,5.00,0.00,23.2,21.6,00.0,32.0,24.9,12.9,0002.6,0011.15,0005.35,0004.73
2023-03-03 01:13:00,,0815.1,5.00,0.00,23.2,21.6,00.0,32.0,24.9,13.1,0002.6,0011.41,0005.52,0004.88
2023-03-03 01:14:00,,0815.1,5.00,0.00,23.1,21.6,00.0,31.9,24.8,13.7,0001.6,0011.98,0005.79,0005.12
2023-03-03 01:15:00,,0815.1,5.00,0.00,23.1,21.6,00.0,31.9,24.9,13.9,0000.8,0012.28,0006.01,0005.32
2023-03-03 01:16:00,,0815.1,5.00,0.00,23.1,21.6,00.0,31.9,24.9,13.8,0000.8,0011.59,0006.13,0005.44
2023-03-03 01:17:00,,0815.1,4.99,0.00,23.1,21.6,00.0,31.9,24.9,13.9,0000.3,0012.37,0006.24,0005.54
2023-03-03 01:18:00,,0815.2,5.01,0.00,23.1,21.6,00.0,31.9,24.9,14.2,0000.1,0012.50,0006.38,0005.66
2023-03-03 01:19:00,,0815.2,5.02,0.00,23.1,21.5,00.0,31.9,24.8,14.4,-000.1,0013.54,0006.52,0005.80
2023-03-03 01:20:00,,0815.4,4.99,0.00,23.1,21.4,00.0,31.9,24.8,14.5,-000.1,0013.91,0006.71,0006.01
2023-03-03 01:21:00,,0815.4,4.99,0.00,23.1,21.4,00.0,31.9,24.8,14.7,-000.9,0014.63,0006.83,0006.14
2023-03-03 01:22:00,,0815.4,5.00,0.00,23.1,21.4,00.0,31.9,24.8,14.7,-001.5,0015.22,0006.93,0006.24
2023-03-03 01:23:00,,0815.4,5.01,0.00,23.1,21.4,00.0,31.9,24.7,14.5,-001.8,0015.11,0007.03,0006.37
2023-03-03 01:24:00,,0815.4,4.99,0.00,23.1,21.4,00.0,31.9,24.7,14.5,-002.1,0016.19,0007.17,0006.50
2023-03-03 01:25:00,,0815.3,5.00,0.00,23.0,21.3,00.0,31.9,24.7,14.6,-002.3,0017.17,0007.25,0006.57
2023-03-03 01:26:00,,0815.3,5.00,0.00,23.0,21.3,00.0,31.8,24.7,14.4,-002.5,0017.15,0007.28,0006.61
2023-03-03 01:27:00,,0815.3,5.00,0.00,23.0,21.3,00.0,31.8,24.7,13.6,-002.7,0017.19,0007.31,0006.63
2023-03-03 01:28:00,,0815.3,5.00,0.00,23.0,21.3,00.0,31.8,24.7,13.4,-002.7,0016.41,0007.29,0006.63
2023-03-03 01:29:00,,0815.4,5.00,0.00,23.0,21.3,00.0,31.8,24.6,14.1,-002.6,0015.64,0007.25,0006.63
2023-03-03 01:30:00,,0815.4,5.00,0.00,23.0,21.3,00.0,31.8,24.6,14.6,-002.9,0014.86,0007.26,0006.63
2023-03-03 01:31:00,,0816.0,4.99,0.00,23.0,21.3,00.0,31.8,24.7,14.6,-002.9,0014.74,0007.24,0006.61
2023-03-03 01:32:00,,0815.8,5.00,0.00,22.9,21.3,00.0,31.8,24.6,14.5,-002.6,0014.86,0007.30,0006.60
2023-03-03 01:33:00,,0815.8,5.01,0.00,22.9,21.3,00.0,31.8,24.6,14.6,-002.1,0015.16,0007.31,0006.59
2023-03-03 01:34:00,,0816.0,5.00,0.00,22.9,21.2,00.0,31.8,24.6,14.7,-001.9,0015.32,0007.29,0006.56
2023-03-03 01:35:00,,0816.1,5.00,0.00,22.9,21.2,00.0,31.8,24.6,14.7,-001.3,0014.20,0007.24,0006.55
2023-03-03 01:36:00,,0816.1,5.00,0.00,22.9,21.2,00.0,31.8,24.6,14.7,-001.1,0013.21,0007.20,0006.54
2023-03-03 01:37:00,,0816.0,5.00,0.00,22.9,21.2,00.0,31.7,24.5,14.7,-001.7,0014.48,0007.20,0006.53
2023-03-03 01:38:00,,0816.0,5.00,0.00,22.9,21.1,00.0,31.7,24.5,14.7,-001.5,0015.04,0007.19,0006.54
2023-03-03 01:39:00,,0815.5,5.00,0.00,22.9,21.2,00.0,31.7,24.5,14.7,-001.6,0015.59,0007.21,0006.57
2023-03-03 01:40:00,,0815.5,5.00,0.00,22.9,21.2,00.0,31.7,24.6,14.7,-002.0,0016.29,0007.23,0006.57
2023-03-03 01:41:00,,0815.6,5.00,0.00,22.8,21.2,00.0,31.7,24.5,14.7,-002.1,0016.75,0007.21,0006.55
2023-03-03 01:42:00,,0815.8,5.00,0.00,22.8,21.2,00.0,31.7,24.5,14.7,-001.9,0016.76,0007.23,0006.56
2023-03-03 01:43:00,,0816.0,5.00,0.00,22.8,21.2,00.0,31.7,24.5,14.7,-001.7,0016.97,0007.23,0006.58
2023-03-03 01:44:00,,0816.0,5.00,0.00,22.8,21.2,00.0,31.7,24.6,14.7,-001.7,0016.09,0007.22,0006.59
2023-03-03 01:45:00,,0815.6,5.01,0.00,22.8,21.3,00.0,31.7,24.6,14.7,-001.9,0015.95,0007.22,0006.60
2023-03-03 01:46:00,,0815.7,5.00,0.00,22.8,21.2,00.0,31.7,24.5,14.7,-002.3,0015.99,0007.25,0006.61
2023-03-03 01:47:00,,0815.7,4.99,0.00,22.8,21.2,00.0,31.7,24.5,14.7,-002.5,0017.16,0007.29,0006.61
2023-03-03 01:48:00,,0815.7,5.01,0.00,22.8,21.2,00.0,31.6,24.5,14.6,-002.1,0016.19,0007.30,0006.61
2023-03-03 01:49:00,,0815.6,4.99,0.00,22.8,21.1,00.0,31.6,24.5,14.6,-002.3,0015.62,0007.31,0006.63
2023-03-03 01:50:00,,0815.7,5.01,0.00,22.8,21.1,00.0,31.6,24.4,14.7,-002.6,0015.17,0007.34,0006.65
2023-03-03 01:51:00,,0815.6,5.00,0.00,22.8,21.0,00.0,31.6,24.4,14.8,-002.4,0014.70,0007.38,0006.69
2023-03-03 01:52:00,,0815.8,5.01,0.00,22.8,21.1,00.0,31.6,24.4,14.8,-002.1,0014.28,0007.41,0006.74
2023-03-03 01:53:00,,0816.0,5.00,0.00,22.7,21.1,00.0,31.6,24.4,14.7,-002.3,0014.30,0007.41,0006.76
2023-03-03 01:54:00,,0815.7,4.99,0.00,22.7,21.1,00.0,31.6,24.4,14.7,-002.7,0013.97,0007.41,0006.77
2023-03-03 01:55:00,,0815.6,5.00,0.00,22.7,21.0,00.0,31.6,24.4,14.7,-002.7,0014.41,0007.51,0006.79
2023-03-03 01:56:00,,0815.6,5.00,0.00,22.7,21.0,00.0,31.6,24.4,14.7,-002.7,0014.56,0007.55,0006.82
2023-03-03 01:57:00,,0815.7,4.98,0.00,22.7,21.1,00.0,31.6,24.4,14.7,-002.7,0014.78,0007.56,0006.81
2023-03-03 01:58:00,,0815.7,5.00,0.00,22.7,21.1,00.0,31.5,24.4,14.7,-002.6,0013.78,0007.56,0006.82
2023-03-03 01:59:00,,0815.7,4.98,0.00,22.7,21.1,00.0,31.5,24.4,14.7,-002.9,0013.32,0007.58,0006.84
